Wind_Speed
22 14 9 5 20 14 11 13 7 11 15 19 16 15 19 25 28 26 22 24 30 37 35 37 31 33 34 29 34 31 20 16 15 10 3 7 11 15 23 18 15 11 7 8 8 9 13 15 11
20 20 13 16 18 17 15 13 11 10 9 10 12 12 13 18 18 22 23 24 32 35 32 34 35 31 31 31 29 29 21 17 17 11 11 10 13 17 17 14 11 11 3 6 8 10 12 13 11
13 19 21 22 18 20 24 20 20 16 13 10 11 13 15 19 22 23 24 27 30 37 36 34 38 35 29 29 24 23 24 21 26 21 24 16 17 19 19 9 5 6 2 7 9 10 9 13 10
12 18 18 17 20 21 22 21 23 20 19 19 16 13 11 16 19 24 26 28 29 31 31 34 36 34 33 33 33 34 28 24 17 18 18 20 21 19 6 6 5 2 3 6 8 9 9 10 9
11 12 12 18 25 27 30 24 20 21 23 24 23 18 12 10 13 17 20 28 34 40 36 33 36 36 37 34 35 29 30 23 21 21 18 21 22 18 8 6 3 3 2 4 6 9 9 11 9
7 8 12 17 29 26 30 31 22 25 23 26 27 21 12 8 12 16 19 21 30 36 37 31 34 35 31 36 34 30 26 21 18 22 24 20 18 12 6 5 7 5 2 3 5 9 10 10 10
9 6 7 17 21 27 30 29 30 31 27 31 34 25 18 9 6 13 17 22 24 30 28 29 34 35 35 31 30 29 27 21 15 11 14 12 15 10 7 6 9 7 5 5 7 9 13 14 16
8 6 8 13 16 24 28 26 30 30 25 32 36 30 24 18 7 7 14 19 22 27 28 28 31 34 32 27 21 25 29 21 15 11 11 10 10 6 6 12 9 8 5 4 6 9 11 10 13
7 13 14 13 16 24 24 17 30 31 24 30 37 33 27 24 20 13 13 19 21 28 30 26 20 26 32 31 19 17 26 18 12 12 12 9 7 6 12 11 9 6 3 2 5 6 10 10 10
11 12 11 8 18 15 15 18 24 23 25 29 36 36 30 26 21 21 17 19 22 25 27 26 21 19 26 34 30 26 20 13 7 9 10 10 9 12 13 11 8 7 4 5 4 3 6 8 11
3 3 8 16 12 9 11 14 20 23 29 28 32 34 30 26 24 22 20 21 21 21 23 25 22 18 19 27 33 31 26 22 12 10 11 12 13 11 10 8 9 7 5 3 1 2 4 9 8
4 3 6 8 14 8 14 15 16 22 24 25 28 30 34 27 23 23 20 20 17 18 21 23 21 17 17 23 27 24 20 16 11 13 17 16 12 11 10 10 10 7 5 5 6 5 7 5 8
10 8 9 3 8 7 11 11 10 17 20 23 23 27 29 33 26 22 20 20 22 21 20 19 16 15 17 20 20 20 20 20 24 14 19 14 12 12 12 10 7 6 5 5 4 3 6 5 9
11 14 12 7 8 8 5 5 2 9 14 20 19 24 25 27 31 23 20 19 18 18 17 17 17 18 18 19 21 22 25 25 22 17 16 14 15 15 12 8 8 7 4 2 2 1 8 12 13
14 14 16 16 15 7 6 9 6 6 12 17 20 21 20 20 25 26 23 16 14 14 14 17 18 20 21 23 24 24 26 25 20 19 19 13 12 12 11 7 6 2 2 5 3 8 10 12 13
15 15 15 17 20 14 8 4 1 7 10 13 14 20 17 16 21 24 23 19 18 18 17 18 19 19 21 22 24 26 23 23 22 22 20 15 14 11 6 6 8 3 4 6 9 5 14 16 17
17 16 15 15 10 12 5 3 3 5 9 11 11 14 16 10 14 18 21 19 18 15 16 18 20 18 19 20 20 22 22 21 21 20 18 14 10 9 7 2 6 8 7 11 11 12 9 16 22
15 14 13 12 9 12 9 4 6 4 6 9 10 11 15 11 10 11 16 17 16 13 12 15 15 15 15 16 17 18 18 17 20 23 16 10 9 6 5 5 8 11 13 16 15 15 19 22 21
18 17 14 14 9 15 13 8 7 10 7 3 6 9 11 9 11 10 10 12 12 11 10 8 10 11 13 13 15 15 16 18 18 18 15 12 11 13 12 11 9 12 16 19 19 21 23 23 25
18 16 18 15 14 17 21 19 22 21 6 2 2 6 9 7 8 10 12 9 8 11 10 11 12 12 10 8 11 10 12 15 15 15 17 16 16 17 15 14 16 18 24 29 29 24 26 26 27
18 16 20 19 21 20 16 18 22 27 11 5 5 3 5 3 4 5 6 9 8 5 8 9 11 11 8 8 8 9 11 13 14 15 16 14 17 20 20 20 17 21 22 18 20 24 25 25 28
17 15 18 19 23 20 18 18 21 23 15 9 10 8 1 4 5 6 4 3 8 7 5 9 9 7 8 9 10 12 14 14 15 16 18 19 20 19 19 16 18 22 25 28 32 30 27 27 28
16 16 16 18 23 24 20 20 23 27 20 15 12 8 8 10 3 5 5 6 10 7 5 1 2 6 2 5 10 15 17 17 18 18 21 22 14 19 21 24 22 24 27 30 29 28 27 26 28
20 18 20 23 27 31 29 27 24 25 28 26 18 20 15 8 10 7 6 6 4 5 6 4 3 5 8 9 7 11 16 20 23 25 25 24 27 24 27 27 27 24 26 28 25 23 22 22 20
24 21 23 22 26 30 30 27 24 22 23 23 21 20 21 18 14 10 13 6 10 10 8 6 5 7 8 6 7 10 15 18 21 24 25 27 29 30 30 24 21 17 21 20 20 16 14 12 13
28 27 27 24 29 28 30 28 26 24 24 23 23 22 21 26 23 19 17 16 13 9 11 9 7 8 10 8 11 12 12 14 17 16 15 17 19 18 17 10 10 11 16 15 9 7 7 6 4
31 29 28 32 30 29 28 29 27 25 25 22 22 15 14 24 32 29 26 22 19 18 14 13 12 14 15 16 15 14 13 13 15 14 11 10 9 8 5 3 4 9 11 4 4 5 4 7 5
34 34 28 31 32 34 30 28 28 25 24 22 21 15 17 22 31 34 33 27 21 22 20 19 17 16 16 19 20 19 18 15 15 15 11 9 9 9 11 9 2 6 7 9 6 4 4 3 4
43 41 38 34 33 34 35 30 28 22 20 21 20 16 18 20 31 37 39 37 30 28 22 20 17 20 22 23 25 23 22 19 15 12 12 13 13 17 20 11 10 13 10 10 10 11 11 12 9
48 47 44 42 39 36 36 35 30 28 26 24 29 26 23 20 29 33 34 37 36 33 30 29 30 29 28 30 24 22 22 22 19 11 12 14 14 21 24 16 15 18 18 18 20 18 20 18 18
Wind_Direction
46 54 18 354 351 348 337 327 291 276 281 278 271 274 258 252 249 246 237 215 215 214 199 205 203 217 209 212 224 221 223 233 212 232 258 310 321 311 330 332 336 339 334 11 53 33 30 22 40
28 30 21 341 1 7 353 347 351 336 304 298 287 263 251 247 236 232 226 220 210 216 225 226 214 216 220 227 230 232 229 217 200 253 293 295 295 302 322 321 322 330 329 34 33 40 29 29 45
23 7 5 353 7 8 11 11 11 4 349 328 300 279 255 236 232 225 228 229 219 216 227 230 230 230 236 239 218 211 207 215 218 237 250 284 312 314 309 302 314 293 18 30 31 30 29 30 55
28 15 355 9 27 16 18 13 11 10 8 11 359 331 286 248 235 231 228 222 220 217 213 219 226 233 239 234 233 216 214 228 236 243 254 273 298 313 288 306 297 232 53 24 7 35 28 37 37
21 356 16 37 43 30 24 27 14 15 11 15 0 343 323 281 242 226 222 220 216 212 218 226 228 229 230 224 224 209 218 229 244 249 260 264 286 299 289 280 211 156 96 42 29 9 36 64 61
338 337 4 50 43 31 16 16 9 12 10 12 3 348 348 298 252 229 220 218 216 214 221 222 218 218 216 221 224 214 216 233 247 249 257 270 282 305 255 246 171 146 86 59 32 23 18 54 66
344 319 57 32 21 28 14 13 10 357 1 17 8 4 2 335 246 223 219 210 205 209 205 208 212 213 214 224 220 220 221 231 246 250 257 271 289 285 225 201 162 142 115 78 48 55 65 52 49
59 45 24 31 11 354 357 3 3 354 8 15 14 13 12 34 62 160 193 191 190 191 193 197 211 213 204 205 228 222 221 234 247 253 256 276 271 224 212 165 155 152 121 54 63 82 69 51 38
37 26 49 25 358 7 356 2 6 358 359 17 21 20 27 42 63 90 140 164 174 181 185 192 197 208 210 204 200 211 223 226 233 248 259 250 211 185 157 150 155 157 154 76 95 72 62 56 61
14 26 10 18 341 10 8 8 6 356 354 25 24 24 33 47 68 80 112 143 160 170 182 190 194 199 209 204 207 209 199 211 216 220 217 189 173 158 154 149 147 162 130 102 93 87 67 56 62
329 293 333 358 2 358 354 332 358 7 4 21 29 27 38 51 63 83 101 131 141 153 172 185 193 193 199 207 210 221 231 228 223 210 181 154 152 153 150 149 148 165 148 105 155 103 53 42 40
263 253 311 35 357 326 325 6 0 19 14 21 36 30 41 48 59 76 103 119 129 144 157 173 187 189 190 192 206 215 213 219 209 163 157 149 159 158 144 137 136 121 113 123 130 111 57 25 27
264 222 247 286 198 284 319 350 338 28 29 28 29 40 39 51 56 71 92 113 122 130 141 157 171 177 176 179 182 182 180 177 161 145 162 155 160 157 148 134 128 127 136 153 137 41 31 342 3
263 245 244 244 249 250 297 338 316 30 30 29 32 35 46 52 60 72 89 116 120 127 133 142 150 153 154 159 160 159 157 160 158 145 150 160 164 162 153 140 114 99 118 134 183 21 348 343 359
268 264 263 254 252 240 292 346 23 352 38 43 39 41 36 57 67 68 74 93 108 115 123 129 136 137 139 145 147 147 151 155 152 145 144 139 138 129 134 133 140 137 166 235 217 319 323 333 324
266 259 267 270 243 255 299 294 268 341 23 45 52 49 29 40 71 78 82 80 89 106 115 117 120 127 131 133 139 146 150 148 148 148 144 146 128 126 125 143 133 202 224 268 275 287 276 312 311
262 257 246 248 238 276 267 280 39 341 346 44 54 63 47 44 52 76 75 79 86 92 111 119 124 125 129 134 141 146 145 147 159 159 165 162 158 156 188 211 212 235 276 285 298 280 292 277 297
279 262 253 248 239 248 217 247 322 334 331 9 41 61 70 73 79 61 79 71 71 92 103 104 107 118 127 132 137 141 152 167 172 178 180 189 191 226 258 272 271 254 251 273 298 300 295 287 285
281 276 263 232 223 196 214 218 228 310 295 345 33 61 94 62 76 76 79 91 87 82 92 98 113 121 129 139 141 152 170 171 172 184 196 212 228 241 265 289 291 290 282 277 284 290 293 292 295
271 261 261 249 226 208 215 240 255 263 234 309 35 58 63 63 60 82 74 90 103 108 111 117 119 125 130 141 145 162 176 176 190 205 218 222 235 248 260 281 291 299 300 285 284 293 296 293 295
263 259 252 242 239 219 218 246 249 255 239 219 205 131 96 87 28 88 54 73 83 121 143 157 158 151 168 174 177 195 211 213 218 222 225 238 262 259 265 296 299 304 307 316 310 298 301 297 292
264 258 247 237 245 240 238 232 234 233 206 188 209 191 245 322 344 319 316 323 336 351 44 199 184 185 217 227 234 236 231 234 232 234 227 253 261 268 271 294 299 310 303 300 300 297 292 290 288
254 254 236 243 243 244 242 243 227 221 212 214 212 195 163 243 182 323 308 308 332 332 359 80 171 179 189 282 264 260 255 247 243 240 254 255 275 262 273 290 307 303 304 302 295 294 291 284 284
246 243 245 230 232 240 238 234 235 235 221 234 223 207 192 205 216 239 277 298 300 315 354 31 325 324 315 300 263 256 251 246 246 248 257 259 261 261 270 282 279 297 303 308 312 307 305 298 294
239 224 236 242 238 243 243 237 236 235 232 232 228 222 212 196 212 219 235 246 275 291 298 327 339 338 337 295 278 265 250 254 254 258 263 264 264 271 273 281 297 302 317 327 325 330 334 325 312
249 238 231 230 243 236 244 242 232 233 225 221 233 248 233 217 213 220 235 247 230 267 289 290 293 317 322 303 294 293 282 263 253 250 255 263 268 269 275 289 299 324 338 337 353 40 46 43 44
252 242 238 237 236 240 238 240 239 233 231 221 215 214 249 242 227 228 228 233 245 243 252 273 286 296 302 301 311 303 291 280 268 253 258 274 281 281 261 239 28 319 324 306 359 57 93 82 43
258 257 243 242 240 243 243 238 237 232 238 245 237 255 257 258 243 234 237 237 238 247 250 253 259 276 280 288 299 302 293 280 264 259 252 241 230 217 203 162 183 260 268 239 212 269 244 147 157
256 256 255 242 235 241 247 245 241 238 230 241 246 257 259 262 249 238 237 240 243 252 254 261 258 262 277 286 290 293 285 282 265 257 256 226 209 205 187 207 222 252 255 241 237 244 269 267 258
256 258 256 254 245 238 238 239 243 239 227 227 234 234 242 241 255 247 237 238 242 245 248 256 260 267 276 286 283 284 282 281 278 270 261 248 219 212 198 229 223 248 269 268 265 259 255 255 252
Height
10979 10977 10975 10973 10971 10967 10963 10960 10955 10951 10950 10947 10944 10941 10939 10939 10941 10943 10947 10951 10954 10957 10959 10961 10964 10966 10968 10972 10975 10976 10978 10980 10983 10985 10985 10985 10984 10984 10984 10983 10983 10981 10979 10979 10979 10978 10976 10973 10973
10979 10978 10977 10975 10970 10965 10961 10956 10951 10947 10946 10943 10941 10937 10936 10934 10935 10937 10940 10944 10949 10951 10953 10956 10959 10963 10966 10969 10971 10974 10977 10978 10982 10982 10984 10986 10986 10984 10983 10982 10982 10981 10980 10980 10980 10979 10978 10976 10975
10979 10978 10976 10973 10969 10964 10959 10953 10948 10945 10944 10941 10937 10934 10932 10930 10929 10930 10933 10936 10940 10945 10948 10951 10955 10959 10963 10966 10971 10973 10975 10977 10979 10982 10984 10986 10985 10984 10983 10982 10981 10980 10980 10980 10980 10980 10979 10978 10978
10977 10977 10976 10971 10967 10963 10958 10951 10948 10945 10941 10937 10932 10928 10925 10924 10923 10924 10927 10930 10934 10937 10942 10946 10951 10955 10959 10964 10967 10971 10974 10975 10978 10981 10983 10985 10985 10985 10983 10983 10982 10982 10981 10981 10981 10981 10981 10980 10978
10978 10978 10974 10969 10963 10961 10956 10951 10951 10947 10941 10937 10932 10924 10920 10917 10917 10917 10920 10923 10927 10933 10937 10942 10947 10952 10956 10960 10965 10969 10972 10976 10979 10981 10983 10984 10985 10983 10982 10983 10983 10983 10984 10983 10983 10982 10983 10983 10981
10977 10975 10972 10967 10963 10960 10958 10952 10950 10946 10941 10937 10929 10921 10915 10912 10910 10911 10914 10917 10921 10927 10933 10938 10942 10949 10953 10957 10963 10969 10973 10977 10978 10981 10982 10983 10983 10982 10982 10983 10984 10985 10985 10985 10985 10985 10983 10983 10983
10976 10975 10974 10968 10963 10960 10958 10954 10947 10943 10941 10935 10925 10918 10911 10905 10903 10904 10906 10911 10917 10923 10929 10934 10940 10946 10953 10956 10963 10969 10973 10976 10978 10979 10980 10981 10980 10980 10982 10983 10984 10986 10986 10987 10987 10988 10987 10984 10984
10976 10974 10973 10968 10964 10963 10957 10954 10948 10945 10939 10934 10924 10917 10909 10902 10898 10899 10903 10908 10915 10921 10928 10933 10939 10945 10952 10957 10962 10966 10971 10973 10976 10977 10978 10978 10978 10979 10982 10983 10985 10987 10987 10988 10989 10989 10989 10988 10986
10975 10974 10969 10967 10964 10962 10960 10958 10951 10944 10940 10935 10927 10920 10912 10903 10900 10900 10903 10908 10914 10920 10927 10933 10938 10943 10949 10956 10961 10965 10970 10974 10975 10976 10977 10977 10978 10980 10982 10984 10986 10988 10989 10990 10991 10991 10991 10990 10989
10972 10973 10970 10967 10964 10963 10960 10958 10956 10949 10945 10938 10929 10925 10916 10910 10907 10906 10908 10911 10916 10921 10928 10933 10938 10943 10948 10955 10960 10963 10967 10971 10974 10975 10976 10977 10979 10981 10982 10985 10988 10989 10991 10991 10992 10992 10992 10991 10990
10974 10972 10971 10970 10966 10964 10964 10962 10958 10948 10944 10941 10936 10931 10924 10920 10915 10914 10915 10917 10920 10924 10930 10936 10940 10943 10947 10952 10957 10961 10966 10970 10973 10975 10976 10978 10981 10983 10985 10986 10988 10989 10991 10993 10993 10992 10993 10993 10991
10973 10971 10971 10972 10968 10962 10965 10963 10961 10950 10948 10943 10943 10937 10929 10926 10923 10921 10922 10923 10925 10928 10933 10938 10942 10944 10947 10951 10956 10962 10966 10970 10974 10976 10978 10980 10982 10984 10987 10988 10990 10991 10992 10993 10994 10994 10994 10994 10992
10974 10972 10972 10973 10970 10966 10967 10964 10964 10958 10954 10948 10947 10944 10938 10933 10931 10929 10929 10929 10932 10934 10937 10940 10942 10945 10948 10952 10957 10961 10966 10970 10975 10977 10980 10982 10984 10986 10988 10990 10991 10993 10994 10996 10996 10995 10994 10994 10992
10973 10972 10971 10971 10970 10970 10969 10967 10965 10963 10958 10954 10949 10947 10947 10943 10938 10939 10938 10939 10939 10940 10942 10943 10944 10947 10951 10955 10959 10962 10967 10971 10976 10979 10981 10984 10986 10989 10991 10993 10994 10994 10995 10995 10995 10995 10994 10993 10992
10970 10970 10969 10970 10969 10967 10968 10968 10963 10964 10961 10956 10953 10950 10952 10952 10947 10946 10945 10946 10945 10945 10946 10947 10949 10951 10954 10958 10962 10965 10970 10973 10978 10983 10985 10988 10990 10993 10994 10995 10995 10995 10996 10996 10995 10994 10994 10993 10992
10967 10966 10966 10967 10965 10965 10966 10967 10966 10964 10960 10959 10957 10953 10953 10955 10954 10953 10953 10953 10952 10952 10952 10953 10955 10957 10960 10962 10965 10970 10974 10977 10981 10985 10986 10988 10990 10993 10995 10995 10996 10996 10996 10995 10995 10994 10994 10992 10991
10962 10963 10963 10964 10963 10962 10964 10964 10965 10965 10962 10962 10961 10960 10959 10957 10956 10957 10957 10957 10958 10958 10959 10960 10961 10963 10965 10968 10971 10974 10977 10980 10983 10985 10987 10989 10989 10990 10992 10993 10994 10994 10995 10995 10993 10992 10991 10990 10989
10958 10957 10958 10961 10962 10961 10963 10964 10965 10966 10965 10964 10964 10963 10964 10964 10961 10959 10957 10958 10960 10962 10965 10965 10966 10968 10970 10972 10975 10977 10979 10981 10984 10986 10987 10988 10988 10988 10990 10990 10991 10993 10993 10992 10991 10991 10990 10989 10988
10954 10953 10953 10957 10961 10962 10962 10963 10964 10966 10965 10964 10965 10966 10966 10966 10966 10964 10962 10961 10964 10965 10966 10967 10969 10972 10975 10975 10976 10978 10980 10982 10984 10986 10986 10987 10987 10988 10989 10990 10990 10990 10991 10990 10989 10989 10988 10987 10986
10951 10952 10950 10953 10958 10958 10960 10962 10963 10965 10966 10966 10966 10966 10966 10967 10968 10967 10966 10966 10967 10968 10970 10971 10972 10974 10976 10977 10978 10979 10981 10983 10984 10986 10986 10987 10987 10988 10989 10990 10990 10990 10989 10988 10987 10986 10985 10983 10981
10948 10950 10949 10950 10952 10955 10957 10958 10960 10962 10965 10966 10967 10968 10968 10968 10969 10969 10970 10971 10972 10972 10972 10974 10975 10975 10976 10977 10979 10980 10981 10983 10984 10985 10985 10986 10986 10986 10988 10989 10988 10987 10987 10985 10983 10982 10980 10978 10976
10946 10947 10945 10946 10947 10951 10952 10956 10957 10958 10960 10964 10967 10966 10967 10968 10968 10969 10970 10972 10974 10975 10974 10974 10974 10975 10977 10978 10980 10980 10981 10982 10983 10983 10985 10985 10985 10986 10987 10986 10985 10984 10984 10982 10979 10977 10974 10972 10970
10941 10942 10944 10943 10943 10946 10950 10952 10955 10954 10957 10961 10964 10965 10967 10969 10968 10968 10968 10970 10972 10974 10974 10974 10974 10974 10975 10976 10978 10978 10978 10980 10981 10983 10982 10983 10982 10982 10982 10981 10981 10980 10977 10974 10970 10968 10966 10964 10963
10936 10938 10939 10942 10942 10942 10946 10950 10950 10952 10956 10957 10961 10964 10966 10967 10966 10968 10969 10969 10971 10972 10973 10972 10973 10974 10974 10974 10974 10973 10974 10975 10976 10978 10978 10980 10979 10978 10978 10977 10976 10975 10972 10968 10964 10961 10960 10959 10958
10931 10933 10934 10937 10937 10937 10941 10946 10947 10950 10953 10955 10957 10960 10963 10964 10963 10966 10966 10969 10969 10970 10970 10971 10972 10973 10972 10970 10969 10969 10969 10970 10972 10973 10975 10975 10975 10974 10974 10975 10975 10973 10969 10964 10961 10959 10957 10955 10955
10922 10927 10928 10932 10929 10933 10935 10939 10943 10946 10949 10951 10953 10957 10958 10960 10962 10963 10963 10965 10966 10967 10968 10969 10971 10972 10970 10967 10966 10967 10967 10967 10968 10968 10968 10968 10969 10969 10972 10974 10973 10970 10966 10963 10961 10958 10957 10954 10952
10913 10919 10925 10925 10926 10929 10933 10936 10939 10941 10942 10946 10948 10950 10953 10955 10956 10959 10960 10961 10962 10963 10964 10967 10968 10968 10966 10964 10962 10962 10963 10964 10963 10962 10963 10965 10966 10968 10969 10967 10966 10964 10962 10961 10960 10958 10957 10957 10956
10908 10912 10921 10923 10926 10924 10929 10931 10934 10939 10938 10941 10943 10947 10948 10949 10949 10951 10955 10957 10958 10959 10961 10961 10962 10962 10962 10961 10961 10960 10959 10959 10960 10961 10962 10961 10961 10962 10961 10960 10956 10954 10955 10955 10954 10955 10956 10956 10956
10900 10905 10910 10916 10920 10923 10924 10929 10932 10937 10939 10940 10941 10943 10943 10944 10946 10946 10948 10951 10954 10953 10956 10955 10956 10956 10956 10957 10957 10956 10954 10953 10956 10959 10958 10957 10957 10955 10955 10955 10954 10952 10950 10951 10954 10954 10954 10954 10955
10892 10896 10901 10905 10911 10916 10919 10925 10931 10933 10934 10936 10936 10937 10939 10939 10940 10939 10941 10944 10948 10948 10950 10951 10950 10950 10951 10951 10950 10950 10950 10949 10949 10953 10954 10953 10954 10952 10951 10950 10951 10948 10947 10950 10949 10949 10950 10952 10953